TimeEDT,TemperatureF,Dew PointF,Humidity,Sea Level PressureIn,VisibilityMPH,Wind Direction,Wind SpeedMPH,Gust SpeedMPH,PrecipitationIn,Events,Conditions,WindDirDegrees,DateUTC
12:13 AM,53.6,51.8,94,30.12,10.0,North,6.9,-,N/A,,Light Drizzle,350,2012-10-09 04:13:00
12:18 AM,53.6,51.8,94,30.12,10.0,Variable,6.9,-,N/A,,Light Drizzle,0,2012-10-09 04:18:00
12:36 AM,53.6,53.6,100,30.11,8.0,North,9.2,-,N/A,,Light Drizzle,350,2012-10-09 04:36:00
12:55 AM,53.8,52.3,95,30.10,9.0,North,6.9,-,0.00,,Light Drizzle,360,2012-10-09 04:55:00
1:15 AM,53.6,51.8,94,30.09,8.0,North,6.9,-,N/A,,Light Drizzle,10,2012-10-09 05:15:00
1:17 AM,53.6,51.8,94,30.09,8.0,North,8.1,-,N/A,,Light Drizzle,360,2012-10-09 05:17:00
1:29 AM,53.6,53.6,100,30.10,8.0,Variable,6.9,-,N/A,,Light Drizzle,0,2012-10-09 05:29:00
1:40 AM,53.6,53.6,100,30.10,8.0,North,8.1,-,N/A,,Light Drizzle,350,2012-10-09 05:40:00
1:52 AM,53.6,53.6,100,30.10,7.0,North,9.2,17.3,N/A,,Light Drizzle,10,2012-10-09 05:52:00
1:55 AM,54.1,52.7,95,30.10,7.0,North,10.4,17.3,0.00,,Light Drizzle,350,2012-10-09 05:55:00
2:00 AM,53.6,53.6,100,30.10,7.0,North,12.7,18.4,N/A,,Light Drizzle,10,2012-10-09 06:00:00
2:30 AM,53.6,51.8,94,30.10,7.0,North,9.2,-,N/A,Rain,Light Rain,10,2012-10-09 06:30:00
2:52 AM,53.6,51.8,94,30.10,6.0,North,8.1,-,N/A,Rain,Light Rain,360,2012-10-09 06:52:00
2:55 AM,54.0,52.7,95,30.10,6.0,North,8.1,-,0.02,Rain,Light Rain,350,2012-10-09 06:55:00
3:55 AM,54.0,52.5,95,30.10,7.0,North,8.1,-,0.03,Rain,Light Rain,360,2012-10-09 07:55:00
4:46 AM,53.6,53.6,100,30.09,7.0,North,9.2,-,N/A,Rain,Light Rain,10,2012-10-09 08:46:00
4:55 AM,53.8,52.5,95,30.10,8.0,North,11.5,-,0.03,Rain,Light Rain,360,2012-10-09 08:55:00
5:00 AM,53.6,51.8,94,30.09,8.0,North,10.4,-,N/A,Rain,Light Rain,360,2012-10-09 09:00:00
5:55 AM,53.8,52.3,95,30.09,10.0,Variable,6.9,-,0.00,Rain,Light Rain,0,2012-10-09 09:55:00
6:55 AM,53.8,52.2,94,30.10,10.0,North,8.1,-,0.01,,Light Drizzle,350,2012-10-09 10:55:00
7:13 AM,53.6,51.8,94,30.09,4.0,North,8.1,-,N/A,,Light Drizzle,360,2012-10-09 11:13:00
7:55 AM,53.2,51.6,94,30.12,4.0,North,9.2,-,0.00,,Light Drizzle,10,2012-10-09 11:55:00
8:08 AM,53.6,51.8,94,30.12,4.0,North,8.1,-,N/A,Rain,Light Rain,350,2012-10-09 12:08:00
8:19 AM,53.6,51.8,94,30.12,8.0,North,10.4,-,N/A,Rain,Light Rain,360,2012-10-09 12:19:00
8:42 AM,53.6,51.8,94,30.12,4.0,North,10.4,-,N/A,Rain,Light Rain,10,2012-10-09 12:42:00
8:55 AM,53.4,51.6,94,30.13,10.0,North,9.2,-,0.03,,Light Drizzle,10,2012-10-09 12:55:00
8:59 AM,53.6,51.8,94,30.13,10.0,North,11.5,-,N/A,,Overcast,360,2012-10-09 12:59:00
9:55 AM,54.3,52.2,92,30.13,10.0,North,9.2,17.3,0.00,,Overcast,360,2012-10-09 13:55:00
11:55 AM,57.0,54.1,90,30.12,10.0,North,6.9,-,N/A,,Overcast,360,2012-10-09 15:55:00
12:55 PM,57.9,55.0,90,30.10,10.0,North,5.8,-,N/A,,Overcast,350,2012-10-09 16:55:00
1:55 PM,58.6,55.8,90,30.08,10.0,North,5.8,-,N/A,,Overcast,360,2012-10-09 17:55:00
2:55 PM,58.8,56.1,91,30.08,10.0,North,8.1,-,0.00,,Light Drizzle,360,2012-10-09 18:55:00
3:32 PM,59.0,55.4,88,30.07,10.0,North,5.8,-,N/A,,Overcast,350,2012-10-09 19:32:00
3:55 PM,58.5,56.1,92,30.07,10.0,North,4.6,-,0.00,,Overcast,360,2012-10-09 19:55:00
4:55 PM,58.8,56.5,92,30.07,10.0,North,4.6,-,N/A,,Overcast,10,2012-10-09 20:55:00
5:04 PM,59.0,57.2,94,30.07,10.0,NNE,4.6,-,N/A,,Overcast,20,2012-10-09 21:04:00
5:49 PM,59.0,57.2,94,30.07,10.0,North,4.6,-,N/A,,Overcast,360,2012-10-09 21:49:00
5:55 PM,58.3,56.7,94,30.07,10.0,North,5.8,-,N/A,,Overcast,10,2012-10-09 21:55:00
6:37 PM,59.0,57.2,94,30.07,10.0,North,5.8,-,N/A,,Light Drizzle,360,2012-10-09 22:37:00
6:49 PM,59.0,57.2,94,30.07,10.0,Variable,5.8,-,N/A,,Overcast,0,2012-10-09 22:49:00
6:55 PM,58.6,57.2,95,30.07,10.0,NNW,5.8,-,0.00,,Overcast,340,2012-10-09 22:55:00
7:55 PM,58.6,57.2,95,30.07,10.0,Variable,4.6,-,N/A,,Overcast,0,2012-10-09 23:55:00
8:27 PM,59.0,57.2,94,30.07,9.0,North,3.5,-,N/A,,Overcast,350,2012-10-10 00:27:00
8:49 PM,59.0,57.2,94,30.07,9.0,North,6.9,-,N/A,,Overcast,350,2012-10-10 00:49:00
8:55 PM,58.8,57.4,95,30.07,9.0,North,4.6,-,N/A,,Overcast,350,2012-10-10 00:55:00
9:50 PM,59.0,57.2,94,30.07,5.0,North,4.6,-,N/A,,Light Drizzle,360,2012-10-10 01:50:00
9:55 PM,58.6,57.7,97,30.07,5.0,North,4.6,-,0.00,,Light Drizzle,360,2012-10-10 01:55:00
10:34 PM,59.0,57.2,94,30.06,4.0,Calm,Calm,-,N/A,,Light Drizzle,0,2012-10-10 02:34:00
10:55 PM,58.6,57.7,97,30.06,5.0,North,4.6,-,0.00,,Light Drizzle,350,2012-10-10 02:55:00
11:11 PM,59.0,57.2,94,30.06,6.0,NNW,4.6,-,N/A,,Light Drizzle,340,2012-10-10 03:11:00
11:55 PM,58.6,57.7,97,30.05,8.0,North,3.5,-,0.00,,Light Drizzle,350,2012-10-10 03:55:00